Location: Berua Church
(35.0423°N, 88.5987°W)
Time: 18:15:15
(UTC+00:00)

Cosmos 1340 - Pass Details

Date: 08 December 2019
Orbit: 501 x 506 km, 81.2° (Epoch: 29 January)

Event Time Altitude Azimuth Distance (km) Brightness Sun altitude
Rises 23:07:05 0° 344° (NNW) 2,613 6.2 -5.4°
Reaches altitude 10° 23:09:15 10° 339° (NNW) 1,724 5.3 -5.8°
Maximum altitude 23:12:53 46° 265° (W) 685 3.9 -6.4°
Drops below altitude 10° 23:16:30 10° 191° (SSW) 1,712 5.8 -7.1°
Sets 23:18:40 0° 186° (S) 2,592 6.7 -7.5°
